Location: downtown San Diego
(32.7310°N, 117.1990°W)
Time: 00:36:04
(UTC-07:00)

Cosmos 1626 - Pass Details

Date: 12 July 2018
Orbit: 495 x 497 km, 82.5° (Epoch: 24 September)

Event Time Altitude Azimuth Distance (km) Brightness Sun altitude
Rises 20:37:34 0° 202° (SSW) 2,564 5.6 -7.9°
Reaches altitude 10° 20:39:46 10° 211° (SSW) 1,686 4.8 -8.3°
Maximum altitude 20:43:12 36° 279° (W) 794 3.8 -8.9°
Drops below altitude 10° 20:46:39 10° 348° (NNW) 1,696 5.5 -9.5°
Sets 20:48:53 0° 357° (N) 2,582 6.3 -9.9°
